Location: Sternwarte_Laufen
(47.9344°N, 12.9346°E)
Time: 07:45:24
(UTC+02:00)

SR - All Passes

Search period start: 08 June 2026 00:00
Search period end: 18 June 2026 00:00
Orbit: 567 x 853 km, 66.7° (Epoch: 7 June)

Date Brightness Start Highest point End Pass type
(mag) Time Alt. Az. Time Alt. Az. Time Alt. Az.
8 Jun - 01:33:07 10° SSE 01:37:16 26° ESE 01:41:41 10° NE visible
8 Jun - 03:13:31 10° SW 03:18:35 57° NW 03:24:04 10° NNE visible
8 Jun - 04:57:54 10° WNW 05:01:32 18° NNW 05:05:19 10° NNE daylight
8 Jun - 06:44:04 10° NNW 06:45:39 11° N 06:47:15 10° NNE daylight
8 Jun - 08:26:09 10° NNW 08:29:50 17° NNE 08:33:31 10° ENE daylight
8 Jun - 10:07:19 10° NNW 10:12:56 49° NE 10:18:29 10° ESE daylight
8 Jun - 11:49:19 10° NW 11:54:34 36° WSW 11:59:42 10° S daylight
9 Jun - 00:40:43 10° SE 00:42:42 12° E 00:44:44 10° ENE visible
9 Jun - 02:18:16 10° SSW 02:23:20 76° ESE 02:28:52 10° NE visible
9 Jun - 04:01:15 10° W 04:05:40 26° NW 04:10:22 10° NNE visible
9 Jun - 05:47:15 10° NW 05:49:26 12° N 05:51:38 10° NNE daylight
9 Jun - 07:31:09 10° NNW 07:33:45 13° NNE 07:36:21 10° NE daylight
9 Jun - 09:12:19 10° NNW 09:17:22 30° NE 09:22:24 10° E daylight
9 Jun - 10:53:50 10° NW 10:59:36 70° WSW 11:05:15 10° SSE daylight
9 Jun - 12:37:58 10° WNW 12:40:18 13° WSW 12:42:37 10° SW daylight
10 Jun - 01:23:44 10° S 01:28:23 38° ESE 01:33:23 10° NE visible
10 Jun - 03:05:07 10° WSW 03:10:03 43° NW 03:15:22 10° NNE visible
10 Jun - 04:50:08 10° WNW 04:53:18 15° NNW 04:56:34 10° NNE daylight
10 Jun - 06:35:48 10° NNW 06:37:33 11° N 06:39:17 10° NNE daylight
10 Jun - 08:17:21 10° NNW 08:21:34 20° NNE 08:25:47 10° ENE daylight
10 Jun - 09:58:37 10° NNW 10:04:23 65° NE 10:10:04 10° SE daylight
10 Jun - 11:41:01 10° NW 11:45:42 26° WSW 11:50:18 10° SSW daylight
11 Jun - 00:30:15 10° SSE 00:33:41 18° ESE 00:37:18 10° ENE visible
11 Jun - 02:09:32 10° SW 02:14:40 78° NW 02:20:15 10° NNE visible
11 Jun - 03:53:16 10° W 03:57:20 21° NNW 04:01:36 10° NNE visible
11 Jun - 05:39:30 10° NNW 05:41:18 11° N 05:43:07 10° NNE daylight
11 Jun - 07:22:24 10° NNW 07:25:34 15° NNE 07:28:45 10° NE daylight
11 Jun - 09:03:33 10° NNW 09:08:56 38° NE 09:14:16 10° ESE daylight
11 Jun - 10:45:17 10° NW 10:50:52 50° WSW 10:56:19 10° S daylight
12 Jun - 01:14:36 10° SSW 01:19:34 54° ESE 01:24:56 10° NE visible
12 Jun - 02:56:51 10° WSW 03:01:35 33° NW 03:06:38 10° NNE visible
12 Jun - 04:42:25 10° NW 04:45:06 13° NNW 04:47:51 10° NNE daylight
12 Jun - 06:27:17 10° NNW 06:29:25 12° N 06:31:33 10° NNE daylight
12 Jun - 08:08:35 10° NNW 08:13:15 25° NE 08:17:55 10° E daylight
12 Jun - 09:49:57 10° NW 09:55:47 87° NE 10:01:30 10° SE daylight
12 Jun - 11:32:59 10° WNW 11:36:46 18° WSW 11:40:31 10° SSW daylight
13 Jun - 00:20:30 10° SSE 00:24:44 27° ESE 00:29:15 10° NE visible
13 Jun - 02:00:58 10° SW 02:06:04 57° NW 02:11:35 10° NNE visible
13 Jun - 03:45:23 10° WNW 03:49:03 18° NNW 03:52:51 10° NNE visible
13 Jun - 05:31:32 10° NNW 05:33:10 11° N 05:34:50 10° NNE daylight
13 Jun - 07:13:37 10° NNW 07:17:21 17° NNE 07:21:05 10° ENE daylight
13 Jun - 08:54:49 10° NNW 09:00:26 50° NE 09:06:00 10° ESE daylight
13 Jun - 10:36:50 10° NW 10:42:03 36° WSW 10:47:09 10° S daylight
13 Jun - 23:27:59 10° SE 23:30:09 13° ESE 23:32:24 10° ENE visible
14 Jun - 01:05:42 10° SSW 01:10:49 78° ESE 01:16:24 10° NE visible
14 Jun - 02:48:43 10° W 02:53:11 26° NW 02:57:53 10° NNE visible
14 Jun - 04:34:43 10° NW 04:36:56 12° N 04:39:12 10° NNE daylight
14 Jun - 06:18:36 10° NNW 06:21:15 13° NNE 06:23:55 10° NE daylight
14 Jun - 07:59:48 10° NNW 08:04:53 30° NE 08:09:55 10° E daylight
14 Jun - 09:41:19 10° NW 09:47:06 69° WSW 09:52:43 10° SSE daylight
14 Jun - 11:25:34 10° WNW 11:27:47 12° W 11:29:58 10° SW daylight
15 Jun - 00:11:08 10° S 00:15:50 39° ESE 00:20:55 10° NE visible
15 Jun - 01:52:33 10° WSW 01:57:32 42° NW 02:02:53 10° NNE visible
15 Jun - 03:37:36 10° WNW 03:40:48 15° NNW 03:44:06 10° NNE visible
15 Jun - 05:23:15 10° NNW 05:25:03 11° N 05:26:51 10° NNE daylight
15 Jun - 07:04:50 10° NNW 07:09:04 20° NNE 07:13:18 10° ENE daylight
15 Jun - 08:46:06 10° NNW 08:51:53 66° NE 08:57:33 10° SE daylight
15 Jun - 10:28:32 10° NW 10:33:11 25° WSW 10:37:43 10° SSW daylight
15 Jun - 23:17:35 10° SSE 23:21:08 19° ESE 23:24:51 10° ENE visible
16 Jun - 00:56:57 10° SW 01:02:08 77° NW 01:07:46 10° NNE visible
16 Jun - 02:40:43 10° W 02:44:49 21° NNW 02:49:07 10° NNE visible
16 Jun - 04:26:56 10° NNW 04:28:47 11° N 04:30:40 10° NNE visible
16 Jun - 06:09:51 10° NNW 06:13:04 15° NNE 06:16:17 10° NE daylight
16 Jun - 07:51:02 10° NNW 07:56:26 39° NE 08:01:45 10° ESE daylight
16 Jun - 09:32:46 10° NW 09:38:21 49° WSW 09:43:45 10° S daylight
17 Jun - 00:02:00 10° SSW 00:07:01 56° ESE 00:12:26 10° NE visible
17 Jun - 01:44:16 10° WSW 01:49:03 33° NW 01:54:08 10° NNE visible
17 Jun - 03:29:52 10° NW 03:32:35 14° NNW 03:35:22 10° NNE visible
17 Jun - 05:14:42 10° NNW 05:16:54 12° N 05:19:06 10° NNE daylight
17 Jun - 06:56:03 10° NNW 07:00:44 25° NE 07:05:25 10° E daylight
17 Jun - 08:37:26 10° NW 08:43:16 88° NE 08:48:57 10° SSE daylight
17 Jun - 10:20:30 10° WNW 10:24:14 18° WSW 10:27:54 10° SW daylight
17 Jun - 23:07:51 10° SSE 23:12:10 27° ESE 23:16:45 10° NE visible
